Regional Weather Roundup
Issued by NWS Midland/Odessa, TX

Skip options and go directly to product.
Home | Oldest Version | Previous Version | Current Version | All | Text Only | Save Text | Print | Product List | Glossary Off

Skip product version selection by date and time.   

585
ASUS44 KMAF 270901
RWRMAF
MIDLAND AREA WEATHER ROUNDUP
NATIONAL WEATHER SERVICE MIDLAND TX
400 AM CDT MON APR 27 2015

...IN SOUTHWEST TEXAS AND SOUTHEAST NEW MEXICO...

CITY           SKY/WX    TMP DP  RH WIND       PRES   REMARKS
ALPINE         CLOUDY    56  27  32 W6        29.89F
ANDREWS        FAIR      50  38  62 W5        29.76S
ARTESIA        CLEAR     46  37  71 W6        29.80R
BIG SPRING     MOCLDY    59  49  70 S5        29.75F
CARLSBAD       CLEAR     49  34  56 NE3       29.77S
DRYDEN           N/A     61  33  35 NW7       29.75F
FORT STOCKTON  MOCLDY    60  32  34 NW9       29.78F
GUAD PASS      NOT AVBL
HOBBS          PTCLDY    45  41  87 NW8       29.79S
MARFA          PTCLDY    50  28  43 W13       29.87F
MIDLAND AIRPK  PTCLDY    56  38  52 W6        29.76S
MIDLAND INTL   PTCLDY    53  37  54 W7        29.76S
ODESSA         PTCLDY    52  35  52 W6        29.77F
PECOS          PTCLDY    52  33  49 W6        29.78R
PRESIDIO       FAIR      59  31  35 CALM      29.82S
SEMINOLE       CLEAR     49  44  83 N5        29.78S
SNYDER         CLOUDY    55  52  91 N10       29.73S
WINK           PTCLDY    48  31  51 NW7       29.76S
$$
...OTHER STATIONS IN TEXAS...

CITY           SKY/WX    TMP DP  RH WIND       PRES   REMARKS
ABILENE        MOCLDY    59  55  87 N10       29.69S
AMARILLO       LGT RAIN  47  45  93 NE25G31   29.84R WCI  39
AUSTIN         CLOUDY    63  62  97 S8        29.61R
BROWNSVILLE    CLOUDY    80  78  94 SE8       29.47F FOG
CORPUS CHRISTI CLOUDY    78  75  90 S14       29.47F FOG
DALLAS FTW     CLOUDY    69  60  73 SE26G37   29.63F
DEL RIO        CLEAR     69  39  33 NW10      29.68R
EL PASO        PTCLDY    54  36  50 W17G29    29.83S
HOUSTON INT    LGT RAIN  74  72  93 E10       29.56F FOG
LUBBOCK        CLOUDY    51  49  92 NE14      29.76F
SAN ANGELO     PTCLDY    60  54  80 W6        29.70S
SAN ANTONIO    CLOUDY    65  61  87 CALM      29.62F
WACO           CLOUDY    63  61  93 NE9       29.63F
WICHITA FALLS  NOT AVBL
$$
...OTHER LOCATIONS IN NEW MEXICO...

CITY           SKY/WX    TMP DP  RH WIND       PRES   REMARKS
ALAMAGORDO     CLOUDY    45  37  76 SE3       29.84F
ALBUQUERQUE    MOCLDY    45  40  82 NW8       29.91R
CANNON AFB     MOCLDY    46  43  87 NE12      29.83R
CLOVIS         CLOUDY    48  45  87 NE14      29.83S
HOLLOMAN AFB   NOT AVBL
ROSWELL        CLEAR     50  40  68 NW10      29.77F
RUIDOSO        CLOUDY    39  36  87 NW10      29.88S WCI  32
SANTA FE       CLOUDY    39  36  89 N13       29.93R WCI  31
TRUTH OR CONSE CLOUDY    46  42  86 N5        29.87R
TUCUMCARI      LGT RAIN  48  46  93 N9        29.86F
$$

USA.gov is the U.S. government's official web portal to all federal, state and local government web resources and services.